Watertown, WI

7:12 AM CST on December 08, 2019 (GMT -0600)
Watertown Municipal

Weather History for KRYV - November, 2019

Change the Weather History Date:

Monday, November 18, 2019

  Actual Average Record
Temperature  
Mean Temperature 33 °F -  
Max Temperature 34 °F 46 °F 71 °F (1953)
Min Temperature 32 °F 30 °F 6 °F (1959)
Degree Days  
Heating Degree Days 32    
Moisture  
Dew Point 33 °F    
Average Humidity 99    
Maximum Humidity 100    
Minimum Humidity 94    
Precipitation  
Precipitation 0.03 in - - ()
Sea Level Pressure  
Sea Level Pressure 29.76 in    
Wind  
Wind Speed 2 mph ()    
Max Wind Speed 5 mph    
Max Gust Speed -    
Visibility 6.6 miles    
Events Fog    
Averages and records for this station are not official NWS values.
T = Trace of Precipitation, MM = Missing Value Source: Averaged Metar Reports

Daily Weather History Graph

Daily Weather History Graph

Search for Another Location

Airport or City:

Astronomy

Nov. 18, 2019 Rise Set
Actual Time 6:51 AM CST 4:28 PM CST
Civil Twilight 6:20 AM CST 4:59 PM CST
Nautical Twilight 5:45 AM CST 5:33 PM CST
Astronomical Twilight 5:11 AM CST 6:07 PM CST
Moon 10:12 PM CST (11/18) 12:23 PM CST (11/18)
Length of Visible Light 10h 38m
Length of Day
9h 37m
Waning Gibbous, 63% of the Moon is Illuminated
Nov 18
Waning Gibbous
Nov 19
Last Quarter
Nov 26
New
Dec 4
First Quarter
Dec 11
Full

Hourly Weather History & Observations

Time (CST) Temp. Windchill Dew Point Humidity Pressure Visibility Wind Dir Wind Speed Gust Speed Precip Events Conditions
12:15 AM 32.0 °F 28.7 °F 32.0 °F 100% 29.79 in 0.8 mi WNW 3.5 mph - N/A   Overcast
12:35 AM 32.0 °F 27.5 °F 32.0 °F 100% 29.79 in 0.5 mi WNW 4.6 mph - N/A Fog Fog
12:55 AM 32.0 °F 28.7 °F 32.0 °F 100% 29.79 in 0.5 mi WNW 3.5 mph - N/A Fog Fog
1:15 AM 32.0 °F 28.7 °F 32.0 °F 100% 29.79 in 0.8 mi WNW 3.5 mph - N/A   Overcast
1:35 AM 32.0 °F 28.7 °F 32.0 °F 100% 29.79 in 2.5 mi WNW 3.5 mph - N/A   Overcast
1:55 AM 32.0 °F - 32.0 °F 100% 29.79 in 3.0 mi Calm Calm - N/A   Overcast
2:35 AM 32.0 °F - 32.0 °F 100% 29.79 in 1.2 mi Calm Calm - N/A   Overcast
2:55 AM 32.0 °F - 32.0 °F 100% 29.79 in 1.0 mi Calm Calm - N/A   Overcast
3:15 AM 32.0 °F - 32.0 °F 100% 29.78 in 0.8 mi Calm Calm - N/A   Overcast
3:35 AM 32.0 °F - 32.0 °F 100% 29.78 in 0.5 mi Calm Calm - N/A Fog Fog
3:55 AM 32.0 °F - 32.0 °F 100% 29.78 in 0.5 mi Calm Calm - N/A Fog Fog
4:15 AM 32.0 °F - 32.0 °F 100% 29.78 in 0.5 mi Calm Calm - N/A Fog Fog
4:35 AM 32.0 °F - 32.0 °F 100% 29.78 in 0.5 mi Calm Calm - N/A Fog Fog
4:55 AM 32.0 °F - 32.0 °F 100% 29.78 in 0.5 mi Calm Calm - N/A Fog Fog
5:15 AM 32.0 °F - 32.0 °F 100% 29.78 in 0.5 mi Calm Calm - N/A Fog Fog
5:35 AM 32.0 °F - 32.0 °F 100% 29.78 in 0.2 mi Calm Calm - N/A   Light Drizzle
5:55 AM 32.0 °F - 32.0 °F 100% 29.78 in 0.2 mi Calm Calm - N/A   Light Drizzle
6:15 AM 32.0 °F - 32.0 °F 100% 29.79 in 0.5 mi Calm Calm - N/A Fog Fog
6:35 AM 32.2 °F - 32.2 °F 100% 29.79 in 0.8 mi Calm Calm - N/A   Overcast
7:15 AM 32.2 °F - 32.2 °F 100% 29.79 in 1.0 mi Calm Calm - N/A   Overcast
7:35 AM 32.4 °F - 32.4 °F 100% 29.79 in 1.5 mi Calm Calm - N/A   Overcast
7:55 AM 32.4 °F 29.1 °F 32.4 °F 100% 29.80 in 1.8 mi WSW 3.5 mph - N/A   Overcast
8:15 AM 32.5 °F - 32.5 °F 100% 29.81 in 2.0 mi Calm Calm - N/A   Overcast
8:35 AM 32.5 °F - 32.5 °F 100% 29.81 in 2.5 mi Calm Calm - N/A   Overcast
8:55 AM 32.9 °F - 32.9 °F 100% 29.80 in 4.0 mi Calm Calm - N/A   Overcast
9:15 AM 33.1 °F - 33.1 °F 100% 29.80 in 5.0 mi Calm Calm - N/A   Overcast
9:35 AM 33.3 °F 30.2 °F 33.3 °F 100% 29.80 in 7.0 mi West 3.5 mph - N/A   Overcast
9:55 AM 33.8 °F 30.8 °F 33.8 °F 100% 29.79 in 7.0 mi West 3.5 mph - N/A   Overcast
10:15 AM 33.4 °F 30.4 °F 33.4 °F 100% 29.78 in 10.0 mi West 3.5 mph - N/A   Overcast
10:35 AM 33.6 °F 30.6 °F 33.6 °F 100% 29.78 in 10.0 mi West 3.5 mph - N/A   Overcast
10:55 AM 33.8 °F 30.8 °F 33.8 °F 100% 29.78 in 10.0 mi West 3.5 mph - N/A   Overcast
11:15 AM 33.8 °F - 33.8 °F 100% 29.77 in 10.0 mi Calm Calm - N/A   Overcast
11:35 AM 33.8 °F - 33.8 °F 100% 29.76 in 10.0 mi Calm Calm - N/A   Overcast
11:55 AM 34.0 °F - 34.0 °F 100% 29.75 in 10.0 mi Calm Calm - N/A   Overcast
12:15 PM 33.8 °F 30.8 °F 33.8 °F 100% 29.75 in 10.0 mi WNW 3.5 mph - N/A   Overcast
12:35 PM 34.9 °F 32.0 °F 34.5 °F 99% 29.74 in 10.0 mi WNW 3.5 mph - N/A   Overcast
12:55 PM 34.7 °F 31.8 °F 34.0 °F 97% 29.74 in 10.0 mi WNW 3.5 mph - N/A   Overcast
1:15 PM 34.9 °F 32.0 °F 33.4 °F 94% 29.74 in 10.0 mi West 3.5 mph - N/A   Overcast
1:35 PM 34.7 °F 31.8 °F 33.1 °F 94% 29.74 in 10.0 mi West 3.5 mph - N/A   Overcast
1:55 PM 34.7 °F - 33.8 °F 97% 29.74 in 10.0 mi Calm Calm - N/A   Overcast
2:15 PM 34.7 °F 30.6 °F 33.1 °F 94% 29.74 in 10.0 mi SW 4.6 mph - N/A   Overcast
2:55 PM 34.2 °F 31.2 °F 33.8 °F 99% 29.74 in 10.0 mi WSW 3.5 mph - N/A   Overcast
3:15 PM 33.8 °F - 33.4 °F 99% 29.73 in 10.0 mi Calm Calm - N/A   Overcast
3:35 PM 33.8 °F - 33.4 °F 99% 29.73 in 10.0 mi Calm Calm - N/A   Overcast
3:55 PM 33.8 °F - 33.6 °F 99% 29.73 in 10.0 mi Calm Calm - N/A   Overcast
4:15 PM 33.8 °F - 33.8 °F 100% 29.73 in 10.0 mi Calm Calm - N/A   Overcast
4:35 PM 33.8 °F - 33.8 °F 100% 29.73 in 10.0 mi Calm Calm - N/A   Overcast
4:55 PM 33.8 °F - 33.8 °F 100% 29.74 in 10.0 mi Calm Calm - N/A   Overcast
5:15 PM 33.8 °F - 33.6 °F 99% 29.74 in 10.0 mi Calm Calm - N/A   Overcast
5:35 PM 33.8 °F 30.8 °F 33.1 °F 97% 29.74 in 10.0 mi SSW 3.5 mph - N/A   Overcast
5:55 PM 33.4 °F 30.4 °F 33.3 °F 99% 29.75 in 10.0 mi SW 3.5 mph - N/A   Overcast
6:15 PM 33.3 °F 28.9 °F 33.1 °F 99% 29.75 in 10.0 mi SW 4.6 mph - N/A   Overcast
6:35 PM 33.1 °F 30.0 °F 33.1 °F 100% 29.75 in 10.0 mi SW 3.5 mph - N/A   Overcast
6:55 PM 32.9 °F - 32.9 °F 100% 29.75 in 10.0 mi Calm Calm - N/A   Overcast
7:15 PM 32.9 °F 28.5 °F 32.9 °F 100% 29.74 in 10.0 mi SW 4.6 mph - N/A   Overcast
7:35 PM 32.5 °F - 32.5 °F 100% 29.74 in 7.0 mi Calm Calm - N/A   Overcast
7:55 PM 32.4 °F - 32.4 °F 100% 29.74 in 10.0 mi Calm Calm - N/A   Overcast
8:15 PM 32.2 °F 27.7 °F 32.2 °F 100% 29.74 in 10.0 mi WSW 4.6 mph - N/A   Overcast
8:35 PM 32.4 °F - 32.4 °F 100% 29.74 in 10.0 mi Calm Calm - N/A   Overcast
8:55 PM 32.2 °F - 32.2 °F 100% 29.73 in 10.0 mi Calm Calm - N/A   Overcast
9:15 PM 32.0 °F 28.7 °F 32.0 °F 100% 29.73 in 10.0 mi South 3.5 mph - N/A   Overcast
9:35 PM 32.2 °F - 32.2 °F 100% 29.73 in 10.0 mi Calm Calm - N/A   Overcast
9:55 PM 32.2 °F 28.9 °F 32.2 °F 100% 29.73 in 10.0 mi SSW 3.5 mph - N/A   Overcast
10:15 PM 32.0 °F 27.5 °F 32.0 °F 100% 29.74 in 10.0 mi WSW 4.6 mph - N/A   Overcast
10:35 PM 32.2 °F - 32.2 °F 100% 29.74 in 10.0 mi Calm Calm - N/A   Overcast
10:55 PM 32.0 °F - 32.0 °F 100% 29.74 in 10.0 mi Calm Calm - N/A   Overcast
11:15 PM 32.0 °F 27.5 °F 32.0 °F 100% 29.74 in 10.0 mi WSW 4.6 mph - N/A   Overcast
11:35 PM 32.0 °F 27.5 °F 32.0 °F 100% 29.74 in 10.0 mi WSW 4.6 mph - N/A   Overcast
11:55 PM 32.0 °F 27.5 °F 32.0 °F 100% 29.74 in 10.0 mi SW 4.6 mph - N/A   Overcast